Location: *
(43.9900°N, 3.4811°E)
Time: 01:25:15
(UTC+00:00)

Cosmos 1515 - Pass Details

Date: 25 August 2019
Orbit: 507 x 516 km, 82.5° (Epoch: 17 October)

Event Time Altitude Azimuth Distance (km) Brightness Sun altitude
Rises 19:20:38 0° 358° (N) 2,636 7.7 -8.6°
Reaches altitude 10° 19:22:52 10° 6° (N) 1,746 6.6 -8.9°
Maximum altitude 19:26:29 40° 77° (ENE) 765 4.2 -9.5°
Drops below altitude 10° 19:30:06 10° 149° (SSE) 1,736 5.9 -10.1°
Enters shadow 19:30:10 10° 149° (SSE) 1,759 5.9 -10.1°
